Regional Weather Roundup
Issued by NWS

Home | Current Version | Previous Version | Text Only | Print | Product List | Glossary Off
Versions: 1 2 3 4 5 6 7 8 9 10 11 12 13 14 15 16 17 18 19 20 21 22 23 24 25 26 27 28 29 30 31 32 33 34 35 36 37 38 39 40 41 42 43 44 45 46 47 48 49 50

367
ASUS44 KLIX 281001
RWRLA
LOUISIANA WEATHER ROUNDUP
NATIONAL WEATHER SERVICE NEW ORLEANS LA
400 AM CST WED JAN 28 2015

NOTE: "FAIR" INDICATES FEW OR NO CLOUDS BELOW 12,000 FEET WITH NO
      SIGNIFICANT WEATHER AND/OR OBSTRUCTIONS TO VISIBILITY.
      SKY/WX - SKY CONDITION AND SIGNIFICANT WEATHER.
      TMP - AIR TEMPERATURE.    DP   - DEWPOINT TEMPERATURE.
      RH  - RELATIVE HUMIDITY.  PRES - PRESSURE.
      HX  - HEAT INDEX.         WCI  - WIND CHILL INDEX.

*  THESE STATIONS ARE NOT NWS OR FAA STATIONS AND ARE NOT UNDER
   NWS QUALITY CONTROL.

LAZ040-048-061>063-065-066-069-281100-
SOUTHEAST LOUISIANA

CITY           SKY/WX    TMP DP  RH WIND       PRES   REMARKS
N.O. AUDUBON   NOT AVBL
N.O. INTL ARPT CLEAR     50  39  66 NE8       30.19F
N.O. LAKEFRONT CLEAR     53  40  61 E9        30.21R
N.O. DOWNTOWN* FAIR      54  36  50 NE9       30.20S
SLIDELL        CLEAR     42  36  79 N6        30.19S
BATON ROUGE    CLEAR     45  35  68 E5        30.19S
BOOTHVILLE     CLEAR     52  45  77 NE6       30.19S
BELLE CHASSE   CLEAR     47  36  65 NE7       30.19S
BOGALUSA*        N/A     38  35  87 CALM      30.22S
GALLIANO*      NOT AVBL
NEW ROADS*     NOT AVBL
GONZALES*      NOT AVBL
HAMMOND*       NOT AVBL
HOUMA*         CLEAR     47  39  74 CALM      30.19S
PORT FOURCHON* SUNNY     55  45  67 NE10      30.22S

$$

LAZ041-044-053-054-281100-
SOUTHWEST LOUISIANA

CITY           SKY/WX    TMP DP  RH WIND       PRES   REMARKS
LAKE CHARLES   CLEAR     43  41  93 E3        30.16F
LAFAYETTE      CLEAR     47  40  76 CALM      30.18R
PATTERSON      CLEAR     46  39  76 E5        30.20R
SALT POINT       N/A     48  44  86 CALM      30.17S
NEW IBERIA     CLEAR     46  41  82 CALM      30.19R
CHENAULT AIRPK NOT AVBL

$$

LAZ027-028-281100-
CENTRAL LOUISIANA

CITY           SKY/WX    TMP DP  RH WIND       PRES   REMARKS
FORT POLK      CLEAR     42  40  93 E1        30.16S
ALEXANDRIA INT CLEAR     42  39  89 CALM      30.17S
ALEXANDRIA     CLEAR     38  35  89 CALM      30.18S

$$

LAZ001-002-281100-
NORTHWEST LOUISIANA

CITY           SKY/WX    TMP DP  RH WIND       PRES   REMARKS
SHREVEPORT     CLEAR     41  37  86 E3        30.14S
BARKSDALE AFB  CLEAR     42  37  80 S2        30.16R
DTN SHREVEPORT CLEAR     48  38  68 SE3       30.15S

$$

LAZ014-016-281100-
NORTHEAST LOUISIANA

CITY           SKY/WX    TMP DP  RH WIND       PRES   REMARKS
MONROE         CLEAR     40  37  89 NE3       30.20S
TALLULAH       CLEAR     39  35  86 E6        30.21S WCI  35

$$




USA.gov is the U.S. government's official web portal to all federal, state and local government web resources and services.